Regional Weather Roundup
Issued by NWS Kansas City/Pleasant Hill, MO

Home | Current Version | Previous Version | Graphics & Text | Print | Product List | Glossary Off
Versions: 1 2 3 4 5 6 7 8 9 10 11 12 13 14 15 16 17 18 19 20 21 22 23 24 25 26 27 28 29 30 31 32 33 34 35 36 37 38 39 40 41 42 43 44 45 46 47 48 49 50

000
ASUS43 KEAX 041010
RWREAX

WEATHER ROUNDUP FOR EASTERN KANSAS AND NORTHWEST MISSOURI
NATIONAL WEATHER SERVICE KANSAS CITY/PLEASANT HILL MO
500 AM CDT TUE AUG 04 2015

KSZ040-057-103>105-MOZ028-029-037-043-041100-
...KANSAS CITY METROPOLITAN AREA...

CITY           SKY/WX    TMP DP  RH WIND       PRES   REMARKS
K.C. INTL      MOCLDY    73  67  81 SE10      29.94S
K.C. DOWNTOWN  CLEAR     74  68  81 E7        29.93R
LEES SUMMIT    CLEAR     71  67  87 E6        29.95R
OLATHE - IXD   PTCLDY    72  70  93 E8        29.95R
OLATHE - OJC   PTCLDY    71  68  90 SE6       29.94R
LAWRENCE       PTCLDY    72  69  90 E5        29.93R

$$

MOZ001>008-011>017-020>025-030>033-038>040-044>046-053-054-041100-
...NORTHERN AND CENTRAL MISSOURI...

CITY           SKY/WX    TMP DP  RH WIND       PRES   REMARKS
ST. JOSEPH     PTCLDY    72  66  81 E8        29.96R
MOSBY          MOSUNNY   72  68  88 CALM      29.96R
WARRENSBURG    MOCLDY    70  68  94 NE6       29.95R
WHITEMAN AFB   MOCLDY    72  70  95 E5        29.95R
CLINTON        CLEAR     70  70 100 CALM      29.95R
SEDALIA        PTCLDY    73  69  87 E7        29.98R
WARSAW         NOT AVBL
CHILLICOTHE      N/A     71  65  81 E3        29.98R
KIRKSVILLE     CLOUDY    67  63  87 E6        29.97F

$$

MOZ041-047>049-056>058-063>065-088>090-097-041100-
...EASTERN AND SOUTHERN MISSOURI...

CITY           SKY/WX    TMP DP  RH WIND       PRES   REMARKS
ST. LOUIS INTL CLOUDY    77  65  66 NE7       29.96R
SPIRIT OF STL  PTCLDY    73  71  93 CALM      29.95R
COLUMBIA       PTCLDY    71  66  84 NE7       29.97R
JEFFERSON CITY PTCLDY    73  66  78 N8        29.97R
ROLLA          CLEAR     69  68  96 SW7       29.96R
OSAGE BEACH    CLEAR     70  66  88 CALM      29.97R
SPRINGFIELD    CLEAR     71  67  87 S5        29.96S
BRANSON        CLEAR     70  66  88 CALM      29.99S
JOPLIN         PTCLDY    72  65  78 S5        29.95R
WEST PLAINS    CLEAR     70  66  87 CALM      30.00R

$$

IAZ060-094-KSZ022-034>040-054-083-096-NEZ052-066-093-041100-
...KANSAS...SOUTHEAST NEBRASKA AND IOWA...

CITY           SKY/WX    TMP DP  RH WIND       PRES   REMARKS
TOPEKA         PTCLDY    73  70  90 CALM      29.92R
MANHATTAN      MOCLDY    72  70  93 CALM      29.90S
EMPORIA        MOCLDY    70  67  90 S9        29.92S
CHANUTE        MOCLDY    69  67  93 SE6       29.93F
WICHITA        CLOUDY    74  67  78 SE5       29.92F
OMAHA          CLOUDY    71  61  70 S8        29.95R
LINCOLN        PTCLDY    70  65  84 NE8       29.95R
FALLS CITY     PTCLDY    70  68  93 E6        29.93S
LAMONI         CLOUDY    67  63  87 S5        29.99R
DES MOINES     PTCLDY    68  59  73 CALM      29.96R

$$




USA.gov is the U.S. government's official web portal to all federal, state and local government web resources and services.